Time,TemperatureF,DewpointF,PressureIn,WindDirection,WindDirectionDegrees,WindSpeedMPH,WindSpeedGustMPH,Humidity,HourlyPrecipIn,Conditions,Clouds,dailyrainin,SolarRadiationWatts/m^2,SoftwareType,DateUTC
2013-10-26 00:02:00,46.9,43.2,30.09,SSW,203,0.0,0.0,87,0.00,RA,,0.00,0.0,WeatherDisplay:10.37,2013-10-26 07:02:00,
2013-10-26 00:07:00,46.8,43.1,30.09,SSW,203,0.0,0.0,87,0.00,RA,,0.00,0.0,WeatherDisplay:10.37,2013-10-26 07:07:00,
2013-10-26 00:12:00,46.8,43.1,30.09,SSW,203,0.0,0.0,87,0.00,,,0.00,0.0,WeatherDisplay:10.37,2013-10-26 07:12:00,
2013-10-26 00:17:00,46.5,42.8,30.09,SSW,203,0.0,0.0,87,0.00,,,0.00,0.0,WeatherDisplay:10.37,2013-10-26 07:17:00,
2013-10-26 00:22:00,46.2,42.8,30.10,SSW,203,0.0,0.0,88,0.00,,,0.00,0.0,WeatherDisplay:10.37,2013-10-26 07:22:00,
2013-10-26 00:27:00,46.2,42.8,30.10,SSW,203,0.0,0.0,88,0.00,,,0.00,0.0,WeatherDisplay:10.37,2013-10-26 07:27:00,
2013-10-26 00:32:00,46.0,42.6,30.10,SSW,203,0.0,0.0,88,0.00,,,0.00,0.0,WeatherDisplay:10.37,2013-10-26 07:32:00,
2013-10-26 00:37:00,45.9,42.5,30.10,SSW,203,0.0,0.0,88,0.00,,,0.00,0.0,WeatherDisplay:10.37,2013-10-26 07:37:00,
2013-10-26 00:42:00,45.9,42.5,30.10,SSW,203,0.0,0.0,88,0.00,,,0.00,0.0,WeatherDisplay:10.37,2013-10-26 07:42:00,
2013-10-26 00:47:00,45.7,42.3,30.10,SSW,203,0.0,0.0,88,0.00,,,0.00,0.0,WeatherDisplay:10.37,2013-10-26 07:47:00,
2013-10-26 00:52:00,45.6,42.3,30.10,SSW,203,0.0,0.0,88,0.00,,,0.00,0.0,WeatherDisplay:10.37,2013-10-26 07:52:00,
2013-10-26 00:57:00,45.6,42.3,30.10,SSW,203,0.0,0.0,88,0.00,,,0.00,0.0,WeatherDisplay:10.37,2013-10-26 07:57:00,
2013-10-26 01:02:00,45.4,42.1,30.10,SSW,203,0.0,0.0,88,0.00,,,0.00,0.0,WeatherDisplay:10.37,2013-10-26 08:02:00,
2013-10-26 01:07:00,45.1,41.8,30.10,SSW,203,0.0,0.0,88,0.00,,,0.00,0.0,WeatherDisplay:10.37,2013-10-26 08:07:00,
2013-10-26 01:12:00,45.0,41.7,30.10,SSW,203,0.0,0.0,88,0.00,,,0.00,0.0,WeatherDisplay:10.37,2013-10-26 08:12:00,
2013-10-26 01:17:00,44.8,41.5,30.10,SSW,203,0.1,1.2,88,0.00,,,0.00,0.0,WeatherDisplay:10.37,2013-10-26 08:17:00,
2013-10-26 01:22:00,45.1,41.8,30.10,SSW,203,0.1,1.2,88,0.00,,,0.00,0.0,WeatherDisplay:10.37,2013-10-26 08:22:00,
2013-10-26 01:27:00,45.4,42.1,30.10,SSW,203,0.0,0.0,88,0.00,,,0.00,0.0,WeatherDisplay:10.37,2013-10-26 08:27:00,
2013-10-26 01:32:00,45.4,42.1,30.10,SSW,203,0.0,0.0,88,0.00,,,0.00,0.0,WeatherDisplay:10.37,2013-10-26 08:32:00,
2013-10-26 01:37:00,45.3,42.0,30.11,SSW,203,0.0,0.0,88,0.00,,,0.00,0.0,WeatherDisplay:10.37,2013-10-26 08:37:00,
2013-10-26 01:42:00,45.1,41.8,30.11,SSW,202,0.0,0.0,88,0.00,,,0.00,0.0,WeatherDisplay:10.37,2013-10-26 08:42:00,
2013-10-26 01:47:00,45.0,41.4,30.11,SSW,203,0.0,0.0,87,0.00,,,0.00,0.0,WeatherDisplay:10.37,2013-10-26 08:47:00,
2013-10-26 01:52:00,44.7,41.4,30.11,SSW,203,0.0,0.0,88,0.00,,,0.00,0.0,WeatherDisplay:10.37,2013-10-26 08:52:00,
2013-10-26 01:57:00,44.5,41.2,30.11,SSW,203,0.0,0.0,88,0.00,,,0.00,0.0,WeatherDisplay:10.37,2013-10-26 08:57:00,
2013-10-26 02:02:00,44.4,41.1,30.11,SSW,203,0.0,0.0,88,0.00,,,0.00,0.0,WeatherDisplay:10.37,2013-10-26 09:02:00,
2013-10-26 02:07:00,44.1,40.8,30.11,SSW,203,0.0,0.0,88,0.00,,,0.00,0.0,WeatherDisplay:10.37,2013-10-26 09:07:00,
2013-10-26 02:12:00,43.8,40.5,30.11,SSW,203,0.0,0.0,88,0.00,,,0.00,0.0,WeatherDisplay:10.37,2013-10-26 09:12:00,
2013-10-26 02:17:00,43.7,40.4,30.11,SSW,203,0.0,0.0,88,0.00,,,0.00,0.0,WeatherDisplay:10.37,2013-10-26 09:17:00,
2013-10-26 02:22:00,43.5,40.2,30.11,SSW,202,0.0,0.0,88,0.00,,,0.00,0.0,WeatherDisplay:10.37,2013-10-26 09:22:00,
2013-10-26 02:27:00,43.7,40.7,30.11,SSW,203,0.0,0.0,89,0.00,,,0.00,0.0,WeatherDisplay:10.37,2013-10-26 09:27:00,
2013-10-26 02:32:00,43.5,40.5,30.11,SSW,203,0.0,0.0,89,0.00,,,0.00,0.0,WeatherDisplay:10.37,2013-10-26 09:32:00,
2013-10-26 02:37:00,43.4,40.4,30.11,SSW,203,0.0,0.0,89,0.00,,,0.00,0.0,WeatherDisplay:10.37,2013-10-26 09:37:00,
2013-10-26 02:42:00,43.4,40.4,30.11,SSW,203,0.0,0.0,89,0.00,,,0.00,0.0,WeatherDisplay:10.37,2013-10-26 09:42:00,
2013-10-26 02:47:00,43.2,40.2,30.11,SSW,203,0.0,0.0,89,0.00,,,0.00,0.0,WeatherDisplay:10.37,2013-10-26 09:47:00,
2013-10-26 02:52:00,43.1,40.4,30.11,SSW,203,0.0,0.0,90,0.00,,,0.00,0.0,WeatherDisplay:10.37,2013-10-26 09:52:00,
2013-10-26 02:57:00,42.9,40.2,30.11,SSW,203,0.0,0.0,90,0.00,,,0.00,0.0,WeatherDisplay:10.37,2013-10-26 09:57:00,
2013-10-26 03:02:00,42.8,39.8,30.11,SSW,203,0.0,0.0,89,0.00,,,0.00,0.0,WeatherDisplay:10.37,2013-10-26 10:02:00,
2013-10-26 03:07:00,42.6,39.9,30.11,SSW,203,0.0,0.0,90,0.00,,,0.00,0.0,WeatherDisplay:10.37,2013-10-26 10:07:00,
2013-10-26 03:12:00,42.5,39.8,30.11,SSW,202,0.0,0.0,90,0.00,,,0.00,0.0,WeatherDisplay:10.37,2013-10-26 10:12:00,
2013-10-26 03:17:00,42.5,39.8,30.11,SSW,203,0.0,0.0,90,0.00,,,0.00,0.0,WeatherDisplay:10.37,2013-10-26 10:17:00,
2013-10-26 03:22:00,42.5,39.8,30.11,SSW,203,0.0,0.0,90,0.00,,,0.00,0.0,WeatherDisplay:10.37,2013-10-26 10:22:00,
2013-10-26 03:27:00,42.8,40.4,30.11,SSW,203,0.0,0.0,91,0.00,,,0.00,0.0,WeatherDisplay:10.37,2013-10-26 10:27:00,
2013-10-26 03:32:00,43.4,41.2,30.11,SSW,203,0.0,0.0,92,0.00,,,0.00,0.0,WeatherDisplay:10.37,2013-10-26 10:32:00,
2013-10-26 03:37:00,43.4,41.2,30.11,SSW,203,0.0,0.0,92,0.00,,,0.00,0.0,WeatherDisplay:10.37,2013-10-26 10:37:00,
2013-10-26 03:42:00,43.1,40.7,30.11,SSW,202,0.0,0.0,91,0.00,,,0.00,0.0,WeatherDisplay:10.37,2013-10-26 10:42:00,
2013-10-26 03:47:00,42.8,40.4,30.10,SSW,202,0.0,0.0,91,0.00,,,0.00,0.0,WeatherDisplay:10.37,2013-10-26 10:47:00,
2013-10-26 03:52:00,42.6,40.2,30.10,SSW,202,0.0,0.0,91,0.00,,,0.00,0.0,WeatherDisplay:10.37,2013-10-26 10:52:00,
2013-10-26 03:57:00,42.3,39.9,30.10,SSW,202,0.0,0.0,91,0.00,,,0.00,0.0,WeatherDisplay:10.37,2013-10-26 10:57:00,
2013-10-26 04:02:00,42.2,39.8,30.10,SSW,202,0.0,0.0,91,0.00,,,0.00,0.0,WeatherDisplay:10.37,2013-10-26 11:02:00,
2013-10-26 04:07:00,42.1,39.7,30.10,SSW,202,0.0,0.0,91,0.00,,,0.00,0.0,WeatherDisplay:10.37,2013-10-26 11:07:00,
2013-10-26 04:12:00,41.9,39.5,30.10,SSW,202,0.0,0.0,91,0.00,,,0.00,0.0,WeatherDisplay:10.37,2013-10-26 11:12:00,
2013-10-26 04:17:00,41.8,39.4,30.10,SSW,202,0.0,0.0,91,0.00,,,0.00,0.0,WeatherDisplay:10.37,2013-10-26 11:17:00,
2013-10-26 04:22:00,41.6,39.2,30.10,SSW,202,0.0,0.0,91,0.00,,,0.00,0.0,WeatherDisplay:10.37,2013-10-26 11:22:00,
2013-10-26 04:27:00,41.3,38.9,30.10,SSW,202,0.0,0.0,91,0.00,,,0.00,0.0,WeatherDisplay:10.37,2013-10-26 11:27:00,
2013-10-26 04:32:00,41.1,38.7,30.10,SSW,202,0.0,0.0,91,0.00,,,0.00,0.0,WeatherDisplay:10.37,2013-10-26 11:32:00,
2013-10-26 04:37:00,41.1,38.7,30.10,SSW,202,0.0,0.0,91,0.00,,,0.00,0.0,WeatherDisplay:10.37,2013-10-26 11:37:00,
2013-10-26 04:42:00,41.3,38.9,30.10,SSW,202,0.0,0.0,91,0.00,,,0.00,0.0,WeatherDisplay:10.37,2013-10-26 11:42:00,
2013-10-26 04:47:00,41.5,39.3,30.10,SSW,202,0.0,0.0,92,0.00,,,0.00,0.0,WeatherDisplay:10.37,2013-10-26 11:47:00,
2013-10-26 04:52:00,41.8,39.6,30.10,SSW,202,0.0,0.0,92,0.00,,,0.00,0.0,WeatherDisplay:10.37,2013-10-26 11:52:00,
2013-10-26 04:57:00,41.8,39.6,30.10,SSW,202,0.0,0.0,92,0.00,,,0.00,0.0,WeatherDisplay:10.37,2013-10-26 11:57:00,
2013-10-26 05:02:00,41.6,39.4,30.10,SSW,202,0.0,0.0,92,0.00,,,0.00,0.0,WeatherDisplay:10.37,2013-10-26 12:02:00,
2013-10-26 05:07:00,42.3,40.4,30.10,SSW,203,0.0,0.0,93,0.00,,,0.00,0.0,WeatherDisplay:10.37,2013-10-26 12:07:00,
2013-10-26 05:12:00,42.6,40.4,30.10,SSW,202,0.0,0.0,92,0.00,,,0.00,0.0,WeatherDisplay:10.37,2013-10-26 12:12:00,
2013-10-26 05:17:00,42.5,40.3,30.10,SSW,202,0.0,0.0,92,0.00,,,0.00,0.0,WeatherDisplay:10.37,2013-10-26 12:17:00,
2013-10-26 05:22:00,42.2,40.0,30.10,SSW,202,0.0,0.0,92,0.00,,,0.00,0.0,WeatherDisplay:10.37,2013-10-26 12:22:00,
2013-10-26 05:27:00,42.1,39.9,30.10,SSW,202,0.0,0.0,92,0.00,,,0.00,0.0,WeatherDisplay:10.37,2013-10-26 12:27:00,
2013-10-26 05:32:00,41.8,39.6,30.10,SSW,202,0.0,0.0,92,0.00,,,0.00,0.0,WeatherDisplay:10.37,2013-10-26 12:32:00,
2013-10-26 05:37:00,41.6,39.4,30.10,SSW,202,0.0,0.0,92,0.00,,,0.00,0.0,WeatherDisplay:10.37,2013-10-26 12:37:00,
2013-10-26 05:42:00,41.6,39.4,30.10,SSW,202,0.0,0.0,92,0.00,,,0.00,0.0,WeatherDisplay:10.37,2013-10-26 12:42:00,
2013-10-26 05:47:00,41.3,39.2,30.10,SSW,202,0.0,0.0,92,0.00,,,0.00,0.0,WeatherDisplay:10.37,2013-10-26 12:47:00,
2013-10-26 05:52:00,41.2,39.1,30.10,SSW,202,0.0,0.0,92,0.00,,,0.00,0.0,WeatherDisplay:10.37,2013-10-26 12:52:00,
2013-10-26 05:57:00,40.9,38.8,30.10,SSW,202,0.0,0.0,92,0.00,,,0.00,0.0,WeatherDisplay:10.37,2013-10-26 12:57:00,
2013-10-26 06:02:00,40.8,38.7,30.10,SSW,202,0.0,0.0,92,0.00,,,0.00,0.0,WeatherDisplay:10.37,2013-10-26 13:02:00,
2013-10-26 06:07:00,40.6,38.5,30.10,SSW,202,0.0,0.0,92,0.00,,,0.00,0.0,WeatherDisplay:10.37,2013-10-26 13:07:00,
2013-10-26 06:12:00,40.5,38.4,30.10,SSW,202,0.0,0.0,92,0.00,,,0.00,0.0,WeatherDisplay:10.37,2013-10-26 13:12:00,
2013-10-26 06:17:00,40.3,38.2,30.10,SSW,202,0.0,0.0,92,0.00,,,0.00,0.0,WeatherDisplay:10.37,2013-10-26 13:17:00,
2013-10-26 06:22:00,40.3,38.2,30.10,SSW,202,0.0,0.0,92,0.00,,,0.00,0.0,WeatherDisplay:10.37,2013-10-26 13:22:00,
2013-10-26 06:27:00,41.1,39.2,30.10,SSW,202,0.0,0.0,93,0.00,,,0.00,0.0,WeatherDisplay:10.37,2013-10-26 13:27:00,
2013-10-26 06:32:00,41.1,39.2,30.10,SSW,202,0.0,0.0,93,0.00,,,0.00,0.0,WeatherDisplay:10.37,2013-10-26 13:32:00,
2013-10-26 06:37:00,40.9,39.0,30.10,SSW,202,0.0,0.0,93,0.00,,,0.00,0.0,WeatherDisplay:10.37,2013-10-26 13:37:00,
2013-10-26 06:42:00,40.8,38.9,30.10,SSW,203,0.0,0.0,93,0.00,,,0.00,0.0,WeatherDisplay:10.37,2013-10-26 13:42:00,
2013-10-26 06:47:00,40.8,38.9,30.10,SSW,202,0.0,0.0,93,0.00,,,0.00,0.0,WeatherDisplay:10.37,2013-10-26 13:47:00,
2013-10-26 06:52:00,40.6,38.7,30.11,SSW,202,0.0,0.0,93,0.00,,,0.00,0.0,WeatherDisplay:10.37,2013-10-26 13:52:00,
2013-10-26 06:57:00,40.3,38.4,30.11,SSW,202,0.0,0.0,93,0.00,,,0.00,0.0,WeatherDisplay:10.37,2013-10-26 13:57:00,
2013-10-26 07:02:00,40.2,38.3,30.11,SSW,202,0.0,0.0,93,0.00,,,0.00,0.0,WeatherDisplay:10.37,2013-10-26 14:02:00,
2013-10-26 07:07:00,40.1,38.2,30.11,SSW,202,0.0,0.0,93,0.00,,,0.00,0.0,WeatherDisplay:10.37,2013-10-26 14:07:00,
2013-10-26 07:12:00,39.9,38.0,30.11,SSW,202,0.0,0.0,93,0.00,,,0.00,0.0,WeatherDisplay:10.37,2013-10-26 14:12:00,
2013-10-26 07:17:00,39.8,37.9,30.11,SSW,202,0.0,0.0,93,0.00,,,0.00,0.0,WeatherDisplay:10.37,2013-10-26 14:17:00,
2013-10-26 07:22:00,39.8,37.9,30.11,SSW,202,0.0,0.0,93,0.00,,,0.00,0.0,WeatherDisplay:10.37,2013-10-26 14:22:00,
2013-10-26 07:27:00,40.3,38.7,30.11,SSW,202,0.0,0.0,94,0.00,,,0.00,0.0,WeatherDisplay:10.37,2013-10-26 14:27:00,
2013-10-26 07:32:00,40.3,38.4,30.12,SSW,202,0.0,0.0,93,0.00,,,0.00,0.0,WeatherDisplay:10.37,2013-10-26 14:32:00,
2013-10-26 07:37:00,40.2,38.3,30.12,SSW,202,0.0,0.0,93,0.00,,,0.00,0.0,WeatherDisplay:10.37,2013-10-26 14:37:00,
2013-10-26 07:42:00,40.3,38.7,30.12,SSW,202,0.0,0.0,94,0.00,,,0.00,0.0,WeatherDisplay:10.37,2013-10-26 14:42:00,
2013-10-26 07:47:00,40.6,39.0,30.12,SSW,202,0.0,0.0,94,0.00,,,0.00,0.0,WeatherDisplay:10.37,2013-10-26 14:47:00,
2013-10-26 07:52:00,41.1,39.5,30.12,SSW,202,0.0,0.0,94,0.00,,,0.00,0.0,WeatherDisplay:10.37,2013-10-26 14:52:00,
2013-10-26 07:57:00,41.6,40.0,30.12,SSW,202,0.0,0.0,94,0.00,,,0.00,0.0,WeatherDisplay:10.37,2013-10-26 14:57:00,
2013-10-26 08:02:00,42.3,41.0,30.12,SSW,202,0.0,0.0,95,0.00,,,0.00,0.0,WeatherDisplay:10.37,2013-10-26 15:02:00,
2013-10-26 08:07:00,43.4,42.1,30.12,SSW,202,0.0,0.0,95,0.01,RA,,0.01,0.0,WeatherDisplay:10.37,2013-10-26 15:07:00,
2013-10-26 08:12:00,44.2,42.9,30.13,SSW,202,0.0,0.0,95,0.01,RA,,0.01,0.0,WeatherDisplay:10.37,2013-10-26 15:12:00,
2013-10-26 08:17:00,45.4,44.3,30.12,SSW,202,0.0,0.0,96,0.01,,,0.01,0.0,WeatherDisplay:10.37,2013-10-26 15:17:00,
2013-10-26 08:22:00,46.3,45.2,30.12,SSW,202,0.0,0.0,96,0.01,,,0.01,0.0,WeatherDisplay:10.37,2013-10-26 15:22:00,
2013-10-26 08:27:00,47.2,45.8,30.12,SSW,202,0.0,0.0,95,0.01,,,0.01,0.0,WeatherDisplay:10.37,2013-10-26 15:27:00,
2013-10-26 08:32:00,47.9,46.5,30.12,SSW,202,0.0,0.0,95,0.01,,,0.01,0.0,WeatherDisplay:10.37,2013-10-26 15:32:00,
2013-10-26 08:37:00,48.8,47.2,30.12,SSW,202,0.0,0.0,94,0.01,,,0.01,0.0,WeatherDisplay:10.37,2013-10-26 15:37:00,
2013-10-26 08:42:00,49.7,47.5,30.13,SSW,202,0.0,0.0,92,0.01,,,0.01,0.0,WeatherDisplay:10.37,2013-10-26 15:42:00,
2013-10-26 08:47:00,50.6,47.5,30.13,SSW,202,0.0,0.0,89,0.01,,,0.01,0.0,WeatherDisplay:10.37,2013-10-26 15:47:00,
2013-10-26 08:52:00,51.3,47.3,30.13,SSW,202,0.0,0.0,86,0.01,,,0.01,0.0,WeatherDisplay:10.37,2013-10-26 15:52:00,
2013-10-26 08:57:00,52.1,47.1,30.13,SSW,202,0.0,0.0,83,0.01,,,0.01,0.0,WeatherDisplay:10.37,2013-10-26 15:57:00,
2013-10-26 09:02:00,52.8,46.5,30.13,SSW,202,0.0,0.0,79,0.01,OVC,,0.01,0.0,WeatherDisplay:10.37,2013-10-26 16:02:00,
2013-10-26 09:07:00,53.4,46.7,30.13,SSW,202,0.0,0.0,78,0.00,OVC,,0.01,0.0,WeatherDisplay:10.37,2013-10-26 16:07:00,
2013-10-26 09:12:00,54.2,46.4,30.13,SSW,202,0.0,1.2,75,0.00,OVC,,0.01,0.0,WeatherDisplay:10.37,2013-10-26 16:12:00,
2013-10-26 09:17:00,54.7,46.2,30.13,SSW,202,0.0,0.0,73,0.00,OVC,,0.01,0.0,WeatherDisplay:10.37,2013-10-26 16:17:00,
2013-10-26 09:22:00,55.3,46.1,30.13,SSW,202,0.0,0.0,71,0.00,OVC,,0.01,0.0,WeatherDisplay:10.37,2013-10-26 16:22:00,
2013-10-26 09:27:00,56.0,45.2,30.13,SSW,202,0.0,0.0,67,0.00,OVC,,0.01,0.0,WeatherDisplay:10.37,2013-10-26 16:27:00,
2013-10-26 09:32:00,56.6,45.8,30.13,SSW,202,0.0,0.0,67,0.00,OVC,,0.01,0.0,WeatherDisplay:10.37,2013-10-26 16:32:00,
2013-10-26 09:37:00,57.6,46.7,30.13,SSW,202,0.0,0.0,67,0.00,OVC,,0.01,0.0,WeatherDisplay:10.37,2013-10-26 16:37:00,
2013-10-26 09:42:00,58.2,47.3,30.13,SSW,202,0.0,1.2,67,0.00,OVC,,0.01,0.0,WeatherDisplay:10.37,2013-10-26 16:42:00,
2013-10-26 09:47:00,58.9,47.2,30.13,SSW,203,0.3,1.2,65,0.00,OVC,,0.01,0.0,WeatherDisplay:10.37,2013-10-26 16:47:00,
2013-10-26 09:52:00,59.5,47.3,30.13,SW,218,0.2,1.2,64,0.00,OVC,,0.01,0.0,WeatherDisplay:10.37,2013-10-26 16:52:00,
2013-10-26 09:57:00,59.8,47.6,30.13,ENE,74,0.1,0.0,64,0.00,OVC,,0.01,0.0,WeatherDisplay:10.37,2013-10-26 16:57:00,
2013-10-26 10:02:00,60.4,48.2,30.13,ENE,74,0.4,1.2,64,0.00,OVC,,0.01,0.0,WeatherDisplay:10.37,2013-10-26 17:02:00,
2013-10-26 10:07:00,61.1,48.4,30.12,NE,46,0.6,2.3,63,0.00,OVC,,0.01,0.0,WeatherDisplay:10.37,2013-10-26 17:07:00,
2013-10-26 10:12:00,61.5,47.9,30.12,NE,46,0.0,1.2,61,0.00,OVC,,0.01,0.0,WeatherDisplay:10.37,2013-10-26 17:12:00,
2013-10-26 10:17:00,62.2,48.1,30.12,NE,46,0.1,1.2,60,0.00,OVC,,0.01,0.0,WeatherDisplay:10.37,2013-10-26 17:17:00,
2013-10-26 10:22:00,63.0,48.4,30.12,NW,325,0.0,0.0,59,0.00,OVC,,0.01,0.0,WeatherDisplay:10.37,2013-10-26 17:22:00,
2013-10-26 10:27:00,63.6,49.0,30.12,NW,326,0.0,1.2,59,0.00,OVC,,0.01,0.0,WeatherDisplay:10.37,2013-10-26 17:27:00,
2013-10-26 10:32:00,64.0,48.9,30.12,NNW,329,0.1,1.2,58,0.00,OVC,,0.01,0.0,WeatherDisplay:10.37,2013-10-26 17:32:00,
2013-10-26 10:37:00,64.0,48.9,30.12,NNW,330,0.8,1.2,58,0.00,OVC,,0.01,0.0,WeatherDisplay:10.37,2013-10-26 17:37:00,
2013-10-26 10:42:00,64.1,49.0,30.12,NNW,330,0.5,1.2,58,0.00,OVC,,0.01,0.0,WeatherDisplay:10.37,2013-10-26 17:42:00,
2013-10-26 10:47:00,64.6,48.5,30.12,NNW,330,0.1,1.2,56,0.00,OVC,,0.01,0.0,WeatherDisplay:10.37,2013-10-26 17:47:00,
2013-10-26 10:52:00,65.1,49.0,30.12,NNW,330,0.1,1.2,56,0.00,OVC,,0.01,0.0,WeatherDisplay:10.37,2013-10-26 17:52:00,
2013-10-26 10:57:00,65.9,49.3,30.12,NNW,331,0.3,2.3,55,0.00,OVC,,0.01,0.0,WeatherDisplay:10.37,2013-10-26 17:57:00,
2013-10-26 11:02:00,66.3,49.2,30.12,NNW,330,0.1,0.0,54,0.00,OVC,,0.01,0.0,WeatherDisplay:10.37,2013-10-26 18:02:00,
2013-10-26 11:07:00,66.6,49.9,30.12,NW,309,0.9,1.2,55,0.00,OVC,,0.01,0.0,WeatherDisplay:10.37,2013-10-26 18:07:00,
2013-10-26 11:12:00,66.8,49.6,30.12,North,350,0.0,0.0,54,0.00,OVC,,0.01,0.0,WeatherDisplay:10.37,2013-10-26 18:12:00,
2013-10-26 11:17:00,67.1,49.4,30.12,NNW,345,0.7,2.3,53,0.00,OVC,,0.01,0.0,WeatherDisplay:10.37,2013-10-26 18:17:00,
2013-10-26 11:22:00,67.1,49.9,30.11,NNW,345,0.0,1.2,54,0.00,OVC,,0.01,0.0,WeatherDisplay:10.37,2013-10-26 18:22:00,
2013-10-26 11:27:00,67.4,49.2,30.12,NNW,345,0.5,1.2,52,0.00,OVC,,0.01,0.0,WeatherDisplay:10.37,2013-10-26 18:27:00,
2013-10-26 11:32:00,67.6,49.3,30.11,NNW,344,0.8,2.3,52,0.00,OVC,,0.01,0.0,WeatherDisplay:10.37,2013-10-26 18:32:00,
2013-10-26 11:37:00,67.8,49.5,30.11,NNW,344,0.4,2.3,52,0.00,OVC,,0.01,0.0,WeatherDisplay:10.37,2013-10-26 18:37:00,
2013-10-26 11:42:00,68.4,50.1,30.11,NNW,344,0.0,1.2,52,0.00,OVC,,0.01,0.0,WeatherDisplay:10.37,2013-10-26 18:42:00,
2013-10-26 11:47:00,69.1,49.7,30.11,NNW,344,0.6,1.2,50,0.00,OVC,,0.01,0.0,WeatherDisplay:10.37,2013-10-26 18:47:00,
2013-10-26 11:52:00,69.6,49.6,30.11,NNW,344,0.0,0.0,49,0.00,OVC,,0.01,0.0,WeatherDisplay:10.37,2013-10-26 18:52:00,
2013-10-26 11:57:00,70.1,49.5,30.11,NNW,344,0.3,1.2,48,0.00,OVC,,0.01,0.0,WeatherDisplay:10.37,2013-10-26 18:57:00,
2013-10-26 12:02:00,70.7,49.5,30.10,NNW,344,0.2,1.2,47,0.00,OVC,,0.01,0.0,WeatherDisplay:10.37,2013-10-26 19:02:00,
2013-10-26 12:07:00,71.2,49.9,30.10,NNW,344,0.1,1.2,47,0.00,OVC,,0.01,0.0,WeatherDisplay:10.37,2013-10-26 19:07:00,
2013-10-26 12:12:00,71.9,50.6,30.10,NW,318,0.0,1.2,47,0.00,OVC,,0.01,0.0,WeatherDisplay:10.37,2013-10-26 19:12:00,
2013-10-26 12:17:00,72.7,50.1,30.10,NW,318,0.0,1.2,45,0.00,OVC,,0.01,0.0,WeatherDisplay:10.37,2013-10-26 19:17:00,
2013-10-26 12:22:00,73.1,49.9,30.10,NW,318,0.0,0.0,44,0.00,OVC,,0.01,0.0,WeatherDisplay:10.37,2013-10-26 19:22:00,
2013-10-26 12:27:00,73.6,50.3,30.09,NW,318,0.1,1.2,44,0.00,OVC,,0.01,0.0,WeatherDisplay:10.37,2013-10-26 19:27:00,
2013-10-26 12:32:00,74.0,50.1,30.09,NW,318,0.4,1.2,43,0.00,OVC,,0.01,0.0,WeatherDisplay:10.37,2013-10-26 19:32:00,
2013-10-26 12:37:00,74.3,50.4,30.09,NW,319,0.1,1.2,43,0.00,OVC,,0.01,0.0,WeatherDisplay:10.37,2013-10-26 19:37:00,
2013-10-26 12:42:00,74.8,49.5,30.08,NW,319,0.0,0.0,41,0.00,OVC,,0.01,0.0,WeatherDisplay:10.37,2013-10-26 19:42:00,
2013-10-26 12:47:00,75.0,49.7,30.08,NW,319,0.1,3.5,41,0.00,OVC,,0.01,0.0,WeatherDisplay:10.37,2013-10-26 19:47:00,
2013-10-26 12:52:00,75.4,49.4,30.08,NW,319,0.3,1.2,40,0.00,OVC,,0.01,0.0,WeatherDisplay:10.37,2013-10-26 19:52:00,
2013-10-26 12:57:00,76.1,48.6,30.08,NW,319,0.1,1.2,38,0.00,OVC,,0.01,0.0,WeatherDisplay:10.37,2013-10-26 19:57:00,
2013-10-26 13:02:00,76.5,50.4,30.08,NW,319,0.0,1.2,40,0.00,OVC,,0.01,0.0,WeatherDisplay:10.37,2013-10-26 20:02:00,
2013-10-26 13:07:00,76.8,48.6,30.07,NW,325,0.2,1.0,37,0.00,OVC,,0.01,0.0,WeatherDisplay:10.37,2013-10-26 20:07:00,
2013-10-26 13:12:00,77.4,48.3,30.07,NW,325,0.2,1.2,36,0.00,OVC,,0.01,0.0,WeatherDisplay:10.37,2013-10-26 20:12:00,
2013-10-26 13:17:00,77.8,48.7,30.07,NW,325,0.0,1.2,36,0.00,OVC,,0.01,0.0,WeatherDisplay:10.37,2013-10-26 20:17:00,
2013-10-26 13:22:00,78.3,47.6,30.07,NW,325,0.1,1.2,34,0.00,OVC,,0.01,0.0,WeatherDisplay:10.37,2013-10-26 20:22:00,
2013-10-26 13:27:00,78.9,48.1,30.06,NNW,331,0.1,1.2,34,0.00,OVC,,0.01,0.0,WeatherDisplay:10.37,2013-10-26 20:27:00,
2013-10-26 13:32:00,79.2,48.4,30.06,NW,324,0.1,1.2,34,0.00,OVC,,0.01,0.0,WeatherDisplay:10.37,2013-10-26 20:32:00,
2013-10-26 13:37:00,79.4,46.1,30.05,North,355,0.0,0.0,31,0.00,OVC,,0.01,0.0,WeatherDisplay:10.37,2013-10-26 20:37:00,
2013-10-26 13:42:00,79.8,47.3,30.05,North,349,0.9,2.3,32,0.00,OVC,,0.01,0.0,WeatherDisplay:10.37,2013-10-26 20:42:00,
2013-10-26 13:47:00,79.8,45.6,30.05,North,349,0.8,2.3,30,0.00,OVC,,0.01,0.0,WeatherDisplay:10.37,2013-10-26 20:47:00,
2013-10-26 13:52:00,80.2,46.8,30.04,North,349,0.2,1.2,31,0.00,OVC,,0.01,0.0,WeatherDisplay:10.37,2013-10-26 20:52:00,
2013-10-26 13:57:00,81.0,45.7,30.04,North,349,0.1,1.2,29,0.00,OVC,,0.01,0.0,WeatherDisplay:10.37,2013-10-26 20:57:00,
2013-10-26 14:02:00,81.6,47.2,30.04,North,350,0.0,1.2,30,0.00,OVC,,0.01,0.0,WeatherDisplay:10.37,2013-10-26 21:02:00,
2013-10-26 14:07:00,81.6,46.3,30.03,NNW,348,0.0,1.2,29,0.00,OVC,,0.01,0.0,WeatherDisplay:10.37,2013-10-26 21:07:00,
2013-10-26 14:12:00,81.2,46.8,30.03,NNW,348,0.1,1.2,30,0.00,OVC,,0.01,0.0,WeatherDisplay:10.37,2013-10-26 21:12:00,
2013-10-26 14:17:00,81.0,45.7,30.03,NNW,348,0.0,1.2,29,0.00,OVC,,0.01,0.0,WeatherDisplay:10.37,2013-10-26 21:17:00,
2013-10-26 14:22:00,81.4,46.1,30.03,NNW,348,0.3,1.2,29,0.00,OVC,,0.01,0.0,WeatherDisplay:10.37,2013-10-26 21:22:00,
2013-10-26 14:27:00,82.0,47.5,30.03,NNW,348,0.0,1.2,30,0.00,OVC,,0.01,0.0,WeatherDisplay:10.37,2013-10-26 21:27:00,
2013-10-26 14:32:00,82.0,46.6,30.03,NNW,348,0.0,0.0,29,0.00,OVC,,0.01,0.0,WeatherDisplay:10.37,2013-10-26 21:32:00,
2013-10-26 14:37:00,82.3,47.8,30.02,NNW,348,0.0,0.0,30,0.00,OVC,,0.01,0.0,WeatherDisplay:10.37,2013-10-26 21:37:00,
2013-10-26 14:42:00,82.3,46.9,30.02,NNW,348,0.1,1.2,29,0.00,OVC,,0.01,0.0,WeatherDisplay:10.37,2013-10-26 21:42:00,
2013-10-26 14:47:00,82.1,46.7,30.02,NNW,348,0.0,0.0,29,0.00,OVC,,0.01,0.0,WeatherDisplay:10.37,2013-10-26 21:47:00,
2013-10-26 14:52:00,82.3,46.9,30.02,NNW,344,0.2,1.2,29,0.00,OVC,,0.01,0.0,WeatherDisplay:10.37,2013-10-26 21:52:00,
2013-10-26 14:57:00,82.3,46.9,30.02,NNW,344,0.1,1.2,29,0.00,OVC,,0.01,0.0,WeatherDisplay:10.37,2013-10-26 21:57:00,
2013-10-26 15:02:00,82.7,47.2,30.02,NNW,344,0.0,1.2,29,0.00,OVC,,0.01,0.0,WeatherDisplay:10.37,2013-10-26 22:02:00,
2013-10-26 15:07:00,82.5,46.1,30.01,North,355,0.1,1.2,28,0.00,OVC,,0.01,0.0,WeatherDisplay:10.37,2013-10-26 22:07:00,
2013-10-26 15:12:00,82.7,46.3,30.01,North,355,0.0,0.0,28,0.00,OVC,,0.01,0.0,WeatherDisplay:10.37,2013-10-26 22:12:00,
2013-10-26 15:17:00,83.1,46.6,30.01,North,355,0.0,1.2,28,0.00,OVC,,0.01,0.0,WeatherDisplay:10.37,2013-10-26 22:17:00,
2013-10-26 15:22:00,83.1,46.6,30.01,North,355,0.0,0.0,28,0.00,OVC,,0.01,0.0,WeatherDisplay:10.37,2013-10-26 22:22:00,
2013-10-26 15:27:00,82.9,46.4,30.01,North,355,0.1,1.2,28,0.00,OVC,,0.01,0.0,WeatherDisplay:10.37,2013-10-26 22:27:00,
2013-10-26 15:32:00,82.3,45.9,30.01,NNW,339,0.1,1.2,28,0.00,OVC,,0.01,0.0,WeatherDisplay:10.37,2013-10-26 22:32:00,
2013-10-26 15:37:00,81.6,46.3,30.00,NNW,339,0.1,1.2,29,0.00,OVC,,0.01,0.0,WeatherDisplay:10.37,2013-10-26 22:37:00,
2013-10-26 15:42:00,81.0,44.8,30.00,NNW,339,0.5,1.2,28,0.00,OVC,,0.01,0.0,WeatherDisplay:10.37,2013-10-26 22:42:00,
2013-10-26 15:47:00,80.8,45.6,30.00,NNW,339,0.0,1.2,29,0.00,OVC,,0.01,0.0,WeatherDisplay:10.37,2013-10-26 22:47:00,
2013-10-26 15:52:00,80.8,45.6,30.00,NNW,338,0.0,0.0,29,0.00,OVC,,0.01,0.0,WeatherDisplay:10.37,2013-10-26 22:52:00,
2013-10-26 15:57:00,80.8,45.6,30.00,NNW,329,0.0,0.0,29,0.00,OVC,,0.01,0.0,WeatherDisplay:10.37,2013-10-26 22:57:00,
2013-10-26 16:02:00,81.0,44.8,30.00,NNW,331,0.4,1.2,28,0.00,OVC,,0.01,0.0,WeatherDisplay:10.37,2013-10-26 23:02:00,
2013-10-26 16:07:00,80.8,46.5,30.00,NNE,26,0.7,2.3,30,0.00,OVC,,0.01,0.0,WeatherDisplay:10.37,2013-10-26 23:07:00,
2013-10-26 16:12:00,80.2,45.9,30.00,NNE,27,0.2,1.2,30,0.00,OVC,,0.01,0.0,WeatherDisplay:10.37,2013-10-26 23:12:00,
2013-10-26 16:17:00,79.8,45.6,30.00,NNE,27,0.0,1.2,30,0.00,OVC,,0.01,0.0,WeatherDisplay:10.37,2013-10-26 23:17:00,
2013-10-26 16:22:00,79.2,45.1,29.99,NNE,27,0.0,0.0,30,0.00,OVC,,0.01,0.0,WeatherDisplay:10.37,2013-10-26 23:22:00,
2013-10-26 16:27:00,79.1,45.9,29.99,NNE,27,0.0,0.0,31,0.00,OVC,,0.01,0.0,WeatherDisplay:10.37,2013-10-26 23:27:00,
2013-10-26 16:32:00,78.7,45.5,29.99,NNE,27,0.0,0.0,31,0.00,OVC,,0.01,0.0,WeatherDisplay:10.37,2013-10-26 23:32:00,
2013-10-26 16:37:00,78.1,45.8,29.99,NNE,27,0.0,0.0,32,0.00,OVC,,0.01,0.0,WeatherDisplay:10.37,2013-10-26 23:37:00,
2013-10-26 16:42:00,77.9,46.5,29.99,NNE,27,0.0,0.0,33,0.00,OVC,,0.01,0.0,WeatherDisplay:10.37,2013-10-26 23:42:00,
2013-10-26 16:47:00,77.6,46.2,29.99,NNE,27,0.0,0.0,33,0.00,OVC,,0.01,0.0,WeatherDisplay:10.37,2013-10-26 23:47:00,
2013-10-26 16:52:00,77.2,47.4,29.99,NNE,27,0.1,1.2,35,0.00,OVC,,0.01,0.0,WeatherDisplay:10.37,2013-10-26 23:52:00,
2013-10-26 16:57:00,76.6,46.9,29.99,NNE,27,0.0,0.0,35,0.00,OVC,,0.01,0.0,WeatherDisplay:10.37,2013-10-26 23:57:00,
2013-10-26 17:02:00,75.9,47.8,29.99,NNE,27,0.0,1.2,37,0.00,,,0.01,0.0,WeatherDisplay:10.37,2013-10-27 00:02:00,
2013-10-26 17:07:00,75.2,47.1,29.99,NNE,27,0.0,0.0,37,0.00,,,0.01,0.0,WeatherDisplay:10.37,2013-10-27 00:07:00,
2013-10-26 17:12:00,74.1,48.2,29.98,NNE,27,0.2,0.0,40,0.00,,,0.01,0.0,WeatherDisplay:10.37,2013-10-27 00:12:00,
2013-10-26 17:17:00,72.9,48.5,29.98,NNE,27,0.0,1.2,42,0.00,,,0.01,0.0,WeatherDisplay:10.37,2013-10-27 00:17:00,
2013-10-26 17:22:00,72.0,48.3,29.98,NNE,27,0.0,0.0,43,0.00,,,0.01,0.0,WeatherDisplay:10.37,2013-10-27 00:22:00,
2013-10-26 17:27:00,71.7,48.6,29.98,NNE,27,0.0,1.2,44,0.00,,,0.01,0.0,WeatherDisplay:10.37,2013-10-27 00:27:00,
2013-10-26 17:32:00,71.5,49.6,29.98,NNE,27,0.0,0.0,46,0.00,,,0.01,0.0,WeatherDisplay:10.37,2013-10-27 00:32:00,
2013-10-26 17:37:00,71.3,49.4,29.98,NNE,27,0.0,0.0,46,0.00,,,0.01,0.0,WeatherDisplay:10.37,2013-10-27 00:37:00,
2013-10-26 17:42:00,71.0,49.2,29.98,NNE,27,0.0,0.0,46,0.00,,,0.01,0.0,WeatherDisplay:10.37,2013-10-27 00:42:00,
2013-10-26 17:47:00,70.7,48.9,29.98,ENE,71,0.0,0.0,46,0.00,,,0.01,0.0,WeatherDisplay:10.37,2013-10-27 00:47:00,
2013-10-26 17:52:00,70.1,49.5,29.98,SE,124,0.0,0.0,48,0.00,,,0.01,0.0,WeatherDisplay:10.37,2013-10-27 00:52:00,
2013-10-26 17:57:00,69.6,49.0,29.98,SE,124,0.0,0.0,48,0.00,,,0.01,0.0,WeatherDisplay:10.37,2013-10-27 00:57:00,
2013-10-26 18:02:00,69.1,49.1,29.98,SE,124,0.0,0.0,49,0.00,,,0.01,0.0,WeatherDisplay:10.37,2013-10-27 01:02:00,
2013-10-26 18:07:00,68.8,49.4,29.98,SE,124,0.0,0.0,50,0.00,,,0.01,0.0,WeatherDisplay:10.37,2013-10-27 01:07:00,
2013-10-26 18:12:00,68.6,49.2,29.98,SE,124,0.0,0.0,50,0.00,,,0.01,0.0,WeatherDisplay:10.37,2013-10-27 01:12:00,
2013-10-26 18:17:00,68.4,49.6,29.98,SE,124,0.0,0.0,51,0.00,,,0.01,0.0,WeatherDisplay:10.37,2013-10-27 01:17:00,
2013-10-26 18:22:00,68.1,49.8,29.98,SE,124,0.0,0.0,52,0.00,,,0.01,0.0,WeatherDisplay:10.37,2013-10-27 01:22:00,
2013-10-26 18:27:00,67.4,49.7,29.98,SE,124,0.0,0.0,53,0.00,,,0.01,0.0,WeatherDisplay:10.37,2013-10-27 01:27:00,
2013-10-26 18:32:00,66.6,49.9,29.98,SE,124,0.0,0.0,55,0.00,,,0.01,0.0,WeatherDisplay:10.37,2013-10-27 01:32:00,
2013-10-26 18:37:00,66.1,49.5,29.98,SE,124,0.0,0.0,55,0.00,,,0.01,0.0,WeatherDisplay:10.37,2013-10-27 01:37:00,
2013-10-26 18:42:00,65.6,49.5,29.98,SE,124,0.0,0.0,56,0.00,,,0.01,0.0,WeatherDisplay:10.37,2013-10-27 01:42:00,
2013-10-26 18:47:00,65.1,49.5,29.98,SE,124,0.0,0.0,57,0.00,,,0.01,0.0,WeatherDisplay:10.37,2013-10-27 01:47:00,
2013-10-26 18:52:00,64.6,49.5,29.99,SE,124,0.0,0.0,58,0.00,,,0.01,0.0,WeatherDisplay:10.37,2013-10-27 01:52:00,
2013-10-26 18:57:00,64.3,49.2,29.98,SE,124,0.0,0.0,58,0.00,,,0.01,0.0,WeatherDisplay:10.37,2013-10-27 01:57:00,
2013-10-26 19:02:00,64.0,48.9,29.99,SE,124,0.0,0.0,58,0.00,,,0.01,0.0,WeatherDisplay:10.37,2013-10-27 02:02:00,
2013-10-26 19:07:00,63.6,49.0,29.99,SE,124,0.0,0.0,59,0.00,,,0.01,0.0,WeatherDisplay:10.37,2013-10-27 02:07:00,
2013-10-26 19:12:00,63.5,48.9,29.99,SE,124,0.0,0.0,59,0.00,,,0.01,0.0,WeatherDisplay:10.37,2013-10-27 02:12:00,
2013-10-26 19:17:00,63.2,49.1,29.99,SE,124,0.0,0.0,60,0.00,,,0.01,0.0,WeatherDisplay:10.37,2013-10-27 02:17:00,
2013-10-26 19:22:00,62.7,49.9,29.99,SE,124,0.0,0.0,63,0.00,,,0.01,0.0,WeatherDisplay:10.37,2013-10-27 02:22:00,
2013-10-26 19:27:00,62.2,49.9,29.99,SE,124,0.0,0.0,64,0.00,,,0.01,0.0,WeatherDisplay:10.37,2013-10-27 02:27:00,
2013-10-26 19:32:00,61.7,49.8,29.99,SE,124,0.0,0.0,65,0.00,,,0.01,0.0,WeatherDisplay:10.37,2013-10-27 02:32:00,
2013-10-26 19:37:00,61.2,49.3,29.99,SE,124,0.0,0.0,65,0.00,,,0.01,0.0,WeatherDisplay:10.37,2013-10-27 02:37:00,
2013-10-26 19:42:00,60.7,49.7,29.99,SE,124,0.0,0.0,67,0.00,,,0.01,0.0,WeatherDisplay:10.37,2013-10-27 02:42:00,
2013-10-26 19:47:00,60.4,49.8,29.99,SE,124,0.0,0.0,68,0.00,,,0.01,0.0,WeatherDisplay:10.37,2013-10-27 02:47:00,
2013-10-26 19:52:00,60.1,50.3,29.99,SE,124,0.0,0.0,70,0.00,,,0.01,0.0,WeatherDisplay:10.37,2013-10-27 02:52:00,
2013-10-26 19:57:00,60.0,50.2,29.99,SE,124,0.0,0.0,70,0.00,,,0.01,0.0,WeatherDisplay:10.37,2013-10-27 02:57:00,
2013-10-26 20:02:00,59.6,50.2,29.99,SE,124,0.0,0.0,71,0.00,,,0.01,0.0,WeatherDisplay:10.37,2013-10-27 03:02:00,
2013-10-26 20:07:00,59.3,50.3,29.99,SE,124,0.0,0.0,72,0.00,,,0.01,0.0,WeatherDisplay:10.37,2013-10-27 03:07:00,
2013-10-26 20:12:00,59.0,50.0,29.99,SE,124,0.0,0.0,72,0.00,,,0.01,0.0,WeatherDisplay:10.37,2013-10-27 03:12:00,
2013-10-26 20:17:00,58.5,49.9,29.99,SE,124,0.0,0.0,73,0.00,,,0.01,0.0,WeatherDisplay:10.37,2013-10-27 03:17:00,
2013-10-26 20:22:00,58.1,49.5,29.99,SE,124,0.0,0.0,73,0.00,,,0.01,0.0,WeatherDisplay:10.37,2013-10-27 03:22:00,
2013-10-26 20:27:00,57.9,49.3,29.99,SE,124,0.0,0.0,73,0.00,,,0.01,0.0,WeatherDisplay:10.37,2013-10-27 03:27:00,
2013-10-26 20:32:00,57.5,47.8,29.99,SE,124,0.0,0.0,70,0.00,,,0.01,0.0,WeatherDisplay:10.37,2013-10-27 03:32:00,
2013-10-26 20:37:00,57.6,48.6,29.99,SE,124,0.0,0.0,72,0.00,,,0.01,0.0,WeatherDisplay:10.37,2013-10-27 03:37:00,
2013-10-26 20:42:00,57.3,47.6,29.99,SE,124,0.0,0.0,70,0.00,,,0.01,0.0,WeatherDisplay:10.37,2013-10-27 03:42:00,
2013-10-26 20:47:00,56.7,47.8,30.00,SE,124,0.0,0.0,72,0.00,,,0.01,0.0,WeatherDisplay:10.37,2013-10-27 03:47:00,
2013-10-26 20:52:00,56.4,47.1,30.00,SE,124,0.0,0.0,71,0.00,,,0.01,0.0,WeatherDisplay:10.37,2013-10-27 03:52:00,
2013-10-26 20:57:00,56.1,46.8,30.00,SE,124,0.0,0.0,71,0.00,,,0.01,0.0,WeatherDisplay:10.37,2013-10-27 03:57:00,
2013-10-26 21:01:00,56.0,47.1,30.00,SE,124,0.0,0.0,72,0.00,,,0.01,0.0,WeatherDisplay:10.37,2013-10-27 04:01:00,
2013-10-26 21:02:00,55.8,46.9,30.00,SE,124,0.0,0.0,72,0.00,,,0.01,0.0,WeatherDisplay:10.37,2013-10-27 04:02:00,
2013-10-26 21:03:00,55.8,46.5,30.00,SE,124,0.0,0.0,71,0.00,,,0.01,0.0,WeatherDisplay:10.37,2013-10-27 04:03:00,
2013-10-26 21:06:00,55.5,46.2,30.00,SE,124,0.0,0.0,71,0.00,,,0.01,0.0,WeatherDisplay:10.37,2013-10-27 04:06:00,
2013-10-26 21:07:00,55.3,46.4,30.00,SE,124,0.0,0.0,72,0.00,,,0.01,0.0,WeatherDisplay:10.37,2013-10-27 04:07:00,
2013-10-26 21:10:00,55.2,46.7,30.00,SE,124,0.0,0.0,73,0.00,,,0.01,0.0,WeatherDisplay:10.37,2013-10-27 04:10:00,
2013-10-26 21:15:00,54.9,45.3,30.00,SE,124,0.0,0.0,70,0.00,,,0.01,0.0,WeatherDisplay:10.37,2013-10-27 04:15:00,
2013-10-26 21:20:00,54.5,44.2,30.00,SE,124,0.0,0.0,68,0.00,,,0.01,0.0,WeatherDisplay:10.37,2013-10-27 04:20:00,
2013-10-26 21:25:00,54.5,44.5,30.00,SE,124,0.0,0.0,69,0.00,,,0.01,0.0,WeatherDisplay:10.37,2013-10-27 04:25:00,
2013-10-26 21:30:00,54.3,44.0,30.00,SE,124,0.0,0.0,68,0.00,,,0.01,0.0,WeatherDisplay:10.37,2013-10-27 04:30:00,
2013-10-26 21:35:00,54.2,43.9,30.00,SE,124,0.0,0.0,68,0.00,,,0.01,0.0,WeatherDisplay:10.37,2013-10-27 04:35:00,
2013-10-26 21:40:00,54.0,43.7,30.00,SE,124,0.0,0.0,68,0.00,,,0.01,0.0,WeatherDisplay:10.37,2013-10-27 04:40:00,
2013-10-26 21:45:00,53.9,44.0,30.00,SE,124,0.0,0.0,69,0.00,,,0.01,0.0,WeatherDisplay:10.37,2013-10-27 04:45:00,
2013-10-26 21:50:00,53.9,44.3,30.00,SE,124,0.0,0.0,70,0.00,,,0.01,0.0,WeatherDisplay:10.37,2013-10-27 04:50:00,
2013-10-26 21:55:00,53.9,44.7,30.00,SE,124,0.0,0.0,71,0.00,,,0.01,0.0,WeatherDisplay:10.37,2013-10-27 04:55:00,
2013-10-26 22:00:00,53.7,44.1,30.00,SE,124,0.0,0.0,70,0.00,,,0.01,0.0,WeatherDisplay:10.37,2013-10-27 05:00:00,
2013-10-26 22:05:00,53.6,44.0,30.00,SE,124,0.0,0.0,70,0.00,,,0.01,0.0,WeatherDisplay:10.37,2013-10-27 05:05:00,
2013-10-26 22:10:00,53.1,43.9,30.01,SE,124,0.0,0.0,71,0.00,,,0.01,0.0,WeatherDisplay:10.37,2013-10-27 05:10:00,
2013-10-26 22:15:00,52.8,44.0,30.01,SE,124,0.0,0.0,72,0.00,,,0.01,0.0,WeatherDisplay:10.37,2013-10-27 05:15:00,
2013-10-26 22:20:00,52.7,44.6,30.01,SE,124,0.0,0.0,74,0.00,,,0.01,0.0,WeatherDisplay:10.37,2013-10-27 05:20:00,
2013-10-26 22:25:00,52.4,44.4,30.01,SE,124,0.0,0.0,74,0.00,,,0.01,0.0,WeatherDisplay:10.37,2013-10-27 05:25:00,
2013-10-26 22:30:00,52.1,44.8,30.01,SE,124,0.0,0.0,76,0.00,,,0.01,0.0,WeatherDisplay:10.37,2013-10-27 05:30:00,
2013-10-26 22:35:00,51.6,44.6,30.01,SE,124,0.0,0.0,77,0.00,,,0.01,0.0,WeatherDisplay:10.37,2013-10-27 05:35:00,
2013-10-26 22:40:00,51.3,45.0,30.01,SE,124,0.0,0.0,79,0.00,,,0.01,0.0,WeatherDisplay:10.37,2013-10-27 05:40:00,
2013-10-26 22:45:00,51.1,44.8,30.01,SE,124,0.0,0.0,79,0.00,,,0.01,0.0,WeatherDisplay:10.37,2013-10-27 05:45:00,
2013-10-26 22:50:00,50.8,44.9,30.01,SE,124,0.0,0.0,80,0.00,,,0.01,0.0,WeatherDisplay:10.37,2013-10-27 05:50:00,
2013-10-26 22:55:00,50.5,44.9,30.01,SE,124,0.0,0.0,81,0.00,,,0.01,0.0,WeatherDisplay:10.37,2013-10-27 05:55:00,
2013-10-26 23:00:00,50.3,44.7,30.01,SE,124,0.0,0.0,81,0.00,,,0.01,0.0,WeatherDisplay:10.37,2013-10-27 06:00:00,
2013-10-26 23:05:00,50.0,44.7,30.01,SE,124,0.0,0.0,82,0.00,,,0.01,0.0,WeatherDisplay:10.37,2013-10-27 06:05:00,
2013-10-26 23:10:00,49.9,44.6,30.01,SE,124,0.0,0.0,82,0.00,,,0.01,0.0,WeatherDisplay:10.37,2013-10-27 06:10:00,
2013-10-26 23:15:00,49.6,44.3,30.01,SE,124,0.0,0.0,82,0.00,,,0.01,0.0,WeatherDisplay:10.37,2013-10-27 06:15:00,
2013-10-26 23:20:00,49.3,44.0,30.01,SE,124,0.0,0.0,82,0.00,,,0.01,0.0,WeatherDisplay:10.37,2013-10-27 06:20:00,
2013-10-26 23:25:00,49.0,43.7,30.01,SE,124,0.0,0.0,82,0.00,,,0.01,0.0,WeatherDisplay:10.37,2013-10-27 06:25:00,
2013-10-26 23:30:00,48.7,43.8,30.01,SE,124,0.0,0.0,83,0.00,,,0.01,0.0,WeatherDisplay:10.37,2013-10-27 06:30:00,
2013-10-26 23:35:00,48.5,43.6,30.01,SE,124,0.0,0.0,83,0.00,,,0.01,0.0,WeatherDisplay:10.37,2013-10-27 06:35:00,
2013-10-26 23:40:00,48.4,43.8,30.01,SE,124,0.0,0.0,84,0.00,,,0.01,0.0,WeatherDisplay:10.37,2013-10-27 06:40:00,
2013-10-26 23:45:00,48.1,43.5,30.01,SE,124,0.0,0.0,84,0.00,,,0.01,0.0,WeatherDisplay:10.37,2013-10-27 06:45:00,
2013-10-26 23:50:00,47.9,43.6,30.01,SE,124,0.0,0.0,85,0.00,,,0.01,0.0,WeatherDisplay:10.37,2013-10-27 06:50:00,
2013-10-26 23:55:00,47.8,43.5,30.00,SE,124,0.0,0.0,85,0.00,,,0.01,0.0,WeatherDisplay:10.37,2013-10-27 06:55:00,